Plovdiv, Bulgaria

4:57 PM EET on December 07, 2019 (GMT +0200)
Plovdiv

Weather History for LBPD - October, 2019

Change the Weather History Date:

Monday, October 14, 2019

  Actual Average (WUND) Record (WUND)
Temperature  
Mean Temperature 62 °F -  
Max Temperature 78 °F - - (-1)
Min Temperature 46 °F - - (-1)
Degree Days  
Heating Degree Days 3    
Growing Degree Days 12 (Base 50)    
Moisture  
Dew Point 48 °F    
Average Humidity 64    
Maximum Humidity 93    
Minimum Humidity 34    
Precipitation  
Precipitation 0.00 in - - ()
Sea Level Pressure  
Sea Level Pressure 30.19 in    
Wind  
Wind Speed 3 mph ()    
Max Wind Speed 8 mph    
Max Gust Speed -    
Visibility 6.2 miles    
Events      
Averages and records for this station are not official NWS values.
T = Trace of Precipitation, MM = Missing Value Source: Averaged Metar Reports

Daily Weather History Graph

Daily Weather History Graph

Search for Another Location

Airport or City:

Astronomy

Oct. 14, 2019 Rise Set
Actual Time 7:31 AM EEST 6:41 PM EEST
Civil Twilight 7:03 AM EEST 7:09 PM EEST
Nautical Twilight 6:31 AM EEST 7:42 PM EEST
Astronomical Twilight 5:58 AM EEST 8:14 PM EEST
Moon 7:22 PM EEST (10/14) 7:44 AM EEST (10/14)
Length of Visible Light 12h 06m
Length of Day
11h 09m
Full, 100% of the Moon is Illuminated
Oct 14
Full
Oct 21
Last Quarter
Oct 28
New
Nov 4
First Quarter
Nov 12
Full

Hourly Weather History & Observations

Time (EEST) Temp. Windchill Dew Point Humidity Pressure Visibility Wind Dir Wind Speed Gust Speed Precip Events Conditions
12:00 AM 53.6 °F - 46.4 °F 77% 30.24 in 6.2 mi West 4.6 mph - N/A   Unknown
12:30 AM 53.6 °F - 48.2 °F 82% 30.24 in 6.2 mi WSW 4.6 mph - N/A   Unknown
1:00 AM 51.8 °F - 46.4 °F 82% 30.24 in 6.2 mi Variable 2.3 mph - N/A   Unknown
1:30 AM 53.6 °F - 48.2 °F 82% 30.24 in 6.2 mi WSW 4.6 mph - N/A   Unknown
2:00 AM 53.6 °F - 48.2 °F 82% 30.24 in 6.2 mi SW 4.6 mph - N/A   Unknown
2:30 AM 55.4 °F - 48.2 °F 77% 30.24 in 6.2 mi Calm Calm - N/A   Unknown
3:00 AM 51.8 °F - 48.2 °F 88% 30.24 in 6.2 mi Variable 2.3 mph - N/A   Unknown
3:30 AM 50.0 °F - 44.6 °F 82% 30.21 in 6.2 mi Variable 2.3 mph - N/A   Unknown
4:00 AM 48.2 °F - 44.6 °F 87% 30.21 in 6.2 mi SSW 3.5 mph - N/A   Unknown
4:30 AM 51.8 °F - 46.4 °F 82% 30.21 in 6.2 mi West 3.5 mph - N/A   Unknown
5:00 AM 48.2 °F - 44.6 °F 87% 30.21 in 6.2 mi Variable 2.3 mph - N/A   Unknown
5:30 AM 51.8 °F - 46.4 °F 82% 30.21 in 6.2 mi Calm Calm - N/A   Unknown
6:00 AM 46.4 °F - 42.8 °F 87% 30.21 in 6.2 mi Variable 2.3 mph - N/A   Unknown
6:30 AM 50.0 °F - 46.4 °F 87% 30.21 in 6.2 mi West 2.3 mph - N/A   Unknown
7:00 AM 46.4 °F - 44.6 °F 93% 30.21 in 6.2 mi WNW 2.3 mph - N/A   Unknown
7:30 AM 48.2 °F - 44.6 °F 87% 30.21 in 6.2 mi SW 2.3 mph - N/A   Unknown
8:00 AM 46.4 °F 45.2 °F 44.6 °F 93% 30.21 in 6.2 mi South 3.5 mph - N/A   Unknown
8:30 AM 50.0 °F - 46.4 °F 87% 30.24 in 6.2 mi Calm Calm - N/A   Unknown
9:00 AM 53.6 °F - 48.2 °F 82% 30.24 in 6.2 mi WNW 3.5 mph - N/A   Unknown
9:30 AM 57.2 °F - 48.2 °F 72% 30.24 in 6.2 mi Calm Calm - N/A   Unknown
10:00 AM 60.8 °F - 48.2 °F 63% 30.24 in 6.2 mi Variable 2.3 mph - N/A   Unknown
10:30 AM 62.6 °F - 48.2 °F 59% 30.24 in 6.2 mi NW 4.6 mph - N/A   Unknown
11:00 AM 64.4 °F - 48.2 °F 56% 30.24 in 6.2 mi Variable 3.5 mph - N/A   Unknown
11:30 AM 68.0 °F - 48.2 °F 49% 30.21 in 6.2 mi Variable 3.5 mph - N/A   Unknown
12:00 PM 69.8 °F - 48.2 °F 46% 30.21 in 6.2 mi Variable 2.3 mph - N/A   Unknown
12:30 PM 71.6 °F - 48.2 °F 43% 30.21 in 6.2 mi NE 3.5 mph - N/A   Unknown
1:00 PM 71.6 °F - 46.4 °F 41% 30.21 in 6.2 mi East 4.6 mph - N/A   Unknown
1:30 PM 73.4 °F - 48.2 °F 41% 30.18 in 6.2 mi Variable 2.3 mph - N/A   Unknown
2:00 PM 77.0 °F - 48.2 °F 36% 30.18 in 6.2 mi East 4.6 mph - N/A   Unknown
2:30 PM 77.0 °F - 48.2 °F 36% 30.15 in 6.2 mi East 4.6 mph - N/A   Unknown
3:00 PM 78.8 °F - 48.2 °F 34% 30.15 in 6.2 mi Variable 4.6 mph - N/A   Unknown
3:30 PM 78.8 °F - 48.2 °F 34% 30.15 in 6.2 mi Variable 5.8 mph - N/A   Unknown
4:00 PM 78.8 °F - 48.2 °F 34% 30.12 in 6.2 mi ENE 5.8 mph - N/A   Unknown
4:30 PM 78.8 °F - 48.2 °F 34% 30.12 in 6.2 mi East 8.1 mph - N/A   Unknown
5:00 PM 78.8 °F - 48.2 °F 34% 30.12 in 6.2 mi East 6.9 mph - N/A   Unknown
5:30 PM 77.0 °F - 50.0 °F 39% 30.12 in 6.2 mi East 6.9 mph - N/A   Unknown
6:00 PM 75.2 °F - 50.0 °F 41% 30.12 in 6.2 mi East 8.1 mph - N/A   Unknown
6:30 PM 73.4 °F - 50.0 °F 44% 30.12 in 6.2 mi East 5.8 mph - N/A   Unknown
7:00 PM 68.0 °F - 50.0 °F 52% 30.12 in 6.2 mi SE 4.6 mph - N/A   Unknown
7:30 PM 66.2 °F - 48.2 °F 52% 30.12 in 6.2 mi East 2.3 mph - N/A   Unknown
8:00 PM 66.2 °F - 48.2 °F 52% 30.15 in 6.2 mi East 4.6 mph - N/A   Unknown
8:30 PM 60.8 °F - 48.2 °F 63% 30.15 in 6.2 mi SSW 4.6 mph - N/A   Unknown
9:00 PM 57.2 °F - 48.2 °F 72% 30.15 in 6.2 mi Variable 2.3 mph - N/A   Unknown
9:30 PM 59.0 °F - 50.0 °F 72% 30.15 in 6.2 mi SE 3.5 mph - N/A   Unknown
10:00 PM 59.0 °F - 50.0 °F 72% 30.15 in 6.2 mi Calm Calm - N/A   Unknown
10:30 PM 55.4 °F - 48.2 °F 77% 30.15 in 6.2 mi Calm Calm - N/A   Unknown
11:00 PM 60.8 °F - 50.0 °F 68% 30.15 in 6.2 mi SSE 5.8 mph - N/A   Unknown
11:30 PM 60.8 °F - 48.2 °F 63% 30.15 in 6.2 mi NW 3.5 mph - N/A   Unknown